Youngstown, OH

11:27 AM EDT on April 20, 2018 (GMT -0400)
Youngstown-Warren Regional

Weather History for KYNG - April, 2014

Change the Weather History Date:

Friday, April 25, 2014

  Actual Average Record
Temperature  
Mean Temperature 51 °F 52 °F  
Max Temperature 61 °F 63 °F 86 °F (1990)
Min Temperature 40 °F 41 °F 25 °F (1956)
Degree Days  
Heating Degree Days 14 13  
Month to date heating degree days 401 439  
Since 1 July heating degree days 6547 5963  
Cooling Degree Days 0 0  
Month to date cooling degree days 0 0  
Year to date cooling degree days 0 1  
Growing Degree Days 2 (Base 50)    
Moisture  
Dew Point 40 °F    
Average Humidity 61    
Maximum Humidity 93    
Minimum Humidity 28    
Precipitation  
Precipitation 0.43 in 0.11 in 0.98 in (1993)
Month to date precipitation 3.09 2.83  
Year to date precipitation 9.72 10.47  
Snow  
Snow 0.00 in 0.00 in - ()
Month to date snowfall 1.2 2.9  
Since 1 July snowfall 90.1 62.6  
Snow Depth 0.00 in    
Sea Level Pressure  
Sea Level Pressure 29.74 in    
Wind  
Wind Speed 10 mph (South)    
Max Wind Speed 22 mph    
Max Gust Speed 32 mph    
Visibility 6 miles    
Events Rain    
T = Trace of Precipitation, MM = Missing Value Source: NWS Daily Summary

Daily Weather History Graph

Daily Weather History Graph

Search for Another Location

Airport or City:

Astronomy

Apr. 25, 2014 Rise Set
Actual Time 6:28 AM EDT 8:13 PM EDT
Civil Twilight 5:58 AM EDT 8:43 PM EDT
Nautical Twilight 5:23 AM EDT 9:19 PM EDT
Astronomical Twilight 4:45 AM EDT 9:57 PM EDT
Moon 4:18 AM EDT (4/25) 4:32 PM EDT (4/25)
Length of Visible Light 14h 44m
Length of Day
13h 45m
Waning Crescent, 15% of the Moon is Illuminated
Apr 25
Waning Crescent
Apr 29
New
May 6
First Quarter
May 14
Full
May 21
Last Quarter

Hourly Weather History & Observations

Time (EDT) Temp. Windchill Dew Point Humidity Pressure Visibility Wind Dir Wind Speed Gust Speed Precip Events Conditions
12:51 AM 45.0 °F 41.2 °F 27.0 °F 49% 29.91 in 10.0 mi ESE 6.9 mph - N/A   Mostly Cloudy
1:51 AM 48.9 °F - 21.9 °F 35% 29.88 in 10.0 mi SE 8.1 mph - N/A   Mostly Cloudy
2:51 AM 48.9 °F - 21.9 °F 35% 29.84 in 10.0 mi ESE 12.7 mph - N/A   Mostly Cloudy
3:51 AM 48.9 °F - 21.0 °F 33% 29.81 in 10.0 mi ESE 12.7 mph - N/A   Scattered Clouds
4:51 AM 50.0 °F - 19.9 °F 31% 29.81 in 10.0 mi SE 11.5 mph - N/A   Scattered Clouds
5:51 AM 48.9 °F - 21.9 °F 35% 29.77 in 10.0 mi ESE 13.8 mph - N/A   Mostly Cloudy
6:51 AM 50.0 °F - 21.9 °F 33% 29.76 in 10.0 mi SE 13.8 mph - N/A   Mostly Cloudy
7:51 AM 52.0 °F - 23.0 °F 32% 29.73 in 10.0 mi ESE 15.0 mph 19.6 mph N/A   Mostly Cloudy
8:51 AM 57.0 °F - 25.0 °F 29% 29.71 in 10.0 mi SE 13.8 mph - N/A   Overcast
9:51 AM 57.9 °F - 28.0 °F 32% 29.72 in 10.0 mi South 11.5 mph 19.6 mph N/A   Overcast
10:51 AM 60.8 °F - 32.0 °F 34% 29.71 in 10.0 mi South 8.1 mph 17.3 mph N/A   Overcast
11:51 AM 55.0 °F - 45.0 °F 69% 29.71 in 7.0 mi SSE 5.8 mph - 0.01 in Rain Light Rain
12:51 PM 53.1 °F - 46.9 °F 80% 29.68 in 7.0 mi SE 9.2 mph - 0.02 in Rain Light Rain
12:59 PM 51.8 °F - 46.4 °F 82% 29.69 in 2.0 mi South 12.7 mph - 0.01 in Rain Rain
1:08 PM 51.8 °F - 48.2 °F 88% 29.68 in 2.0 mi SSE 6.9 mph - 0.06 in Rain Rain
1:51 PM 52.0 °F - 48.9 °F 89% 29.67 in 2.0 mi SE 9.2 mph - 0.12 in Rain Rain
2:27 PM 53.6 °F - 51.8 °F 94% 29.66 in 2.0 mi SSE 10.4 mph - 0.04 in Rain Rain
2:44 PM 53.6 °F - 51.8 °F 94% 29.65 in 2.0 mi SSE 8.1 mph - 0.05 in Rain Light Rain
2:51 PM 54.0 °F - 52.0 °F 93% 29.65 in 2.0 mi SSE 8.1 mph - 0.06 in Rain Light Rain
3:23 PM 55.4 °F - 53.6 °F 94% 29.64 in 2.0 mi South 8.1 mph - 0.02 in Rain Light Rain
3:42 PM 55.4 °F - 53.6 °F 94% 29.63 in 2.0 mi South 6.9 mph - 0.02 in Rain Light Rain
3:51 PM 55.0 °F - 53.1 °F 93% 29.64 in 2.0 mi South 6.9 mph - 0.02 in Rain Light Rain
3:58 PM 55.4 °F - 53.6 °F 94% 29.63 in 3.0 mi South 9.2 mph - 0.00 in Rain Light Rain
4:24 PM 55.4 °F - 53.6 °F 94% 29.63 in 2.5 mi South 6.9 mph - 0.03 in Rain Light Rain
4:51 PM 55.0 °F - 53.1 °F 93% 29.64 in 2.0 mi SSW 9.2 mph - 0.07 in Rain Light Rain
5:34 PM 48.2 °F - 46.4 °F 93% 29.66 in 2.5 mi NW 15.0 mph 23.0 mph 0.09 in Rain Rain
5:38 PM 48.2 °F - 46.4 °F 93% 29.67 in 3.0 mi WNW 13.8 mph 23.0 mph 0.10 in Rain Rain
5:51 PM 48.0 °F - 46.0 °F 93% 29.69 in 6.0 mi WNW 13.8 mph - 0.12 in Rain Light Rain
6:39 PM 46.4 °F 39.2 °F 42.8 °F 87% 29.71 in 10.0 mi WNW 18.4 mph - 0.01 in   Overcast
6:51 PM 46.0 °F 39.3 °F 43.0 °F 89% 29.73 in 9.0 mi WNW 16.1 mph 26.5 mph 0.01 in   Overcast
6:59 PM 44.6 °F 36.9 °F 42.8 °F 93% 29.73 in 7.0 mi WNW 18.4 mph 24.2 mph N/A   Overcast
7:51 PM 45.0 °F 38.9 °F 41.0 °F 86% 29.77 in 6.0 mi WNW 12.7 mph 23.0 mph N/A   Overcast
8:51 PM 45.0 °F 39.7 °F 42.1 °F 90% 29.81 in 5.0 mi West 10.4 mph - N/A   Overcast
9:51 PM 46.0 °F 41.4 °F 42.1 °F 86% 29.85 in 5.0 mi WNW 9.2 mph - N/A   Overcast
10:02 PM 46.4 °F 40.7 °F 41.0 °F 81% 29.85 in 6.0 mi WNW 12.7 mph - N/A   Haze
10:51 PM 44.6 °F 39.7 °F 41.0 °F 87% 29.86 in 7.0 mi West 9.2 mph - N/A   Mostly Cloudy
11:09 PM 44.6 °F 40.2 °F 39.2 °F 81% 29.86 in 7.0 mi West 8.1 mph - N/A   Scattered Clouds
11:51 PM 41.0 °F 37.1 °F 39.0 °F 93% 29.87 in 5.0 mi West 5.8 mph - N/A   Partly Cloudy